Location: Ajisawe
(8.4333°N, 4.3833°E)
Time: 22:19:36
(UTC+00:00)

Vanguard 2 Rocket - Pass Details

Date: 23 April 2021
Orbit: 554 x 3326 km, 32.9° (Epoch: 16 May)

Event Time Altitude Azimuth Distance (km) Brightness Sun altitude
Rises 11:27:38 0° 263° (W) 5,252 10.8 84.7°
Reaches altitude 10° 11:30:49 10° 269° (W) 4,586 10.6 85.1°
Maximum altitude 11:44:04 46° 339° (NNW) 3,526 10.8 85.7°
Drops below altitude 10° 12:02:54 10° 47° (NE) 6,281 11.3 83.1°
Sets 12:08:18 0° 53° (NE) 7,267 11.5 82.0°
